Tracking 28794 objects as of 19-Apr-2024
HD Live streaming from Space Station
objects crossing your sky now

CZ-3B DEB

Track CZ-3B DEB now!


NORAD ID: 40169
Int'l Code: 2010-042W
Perigee: 1,304.1 km
Apogee: 40,272.7 km
Inclination: 26.8 °
Period: 742.4 minutes
Semi major axis: 27159 km
RCS: Unknown
Launch date: September 4, 2010
Source: People's Republic of China (PRC)
Launch site: Xichang Space Center, China (XSC)

Note: This is SATELLITE DEBRIS
Your satellite tracking list
Your tracking list is empty




NASA's NSSDC Master Catalog

Two Line Element Set (TLE):
1 40169U 10042W   24109.63200822 -.00000240  00000-0  00000-0 0  9993
2 40169  26.7525  68.4226 7174042  77.3781  18.3132  1.93964288 82474
Source of the keplerian elements: AFSPC